Preview of NWS' New Version of Forecast
This preview is not operational and should not be used for support decisions.

Regional Weather Roundup (RWR)

Issued by National Weather Service (NWS)

                            
000
ASUS46 KSEW 182010
RWRWA 

WASHINGTON REGIONAL WEATHER ROUNDUP
NATIONAL WEATHER SERVICE SEATTLE WA
100 PM PDT TUE JUN 18 2019

NOTE:"FAIR" INDICATES FEW OR NO CLOUDS BELOW 12,000 FEET WITH NO 
SIGNIFICANT WEATHER AND/OR OBSTRUCTIONS TO VISIBILITY.

WAZ507-509-555>559-182100-
SEATTLE, TACOMA, EVERETT, AND VICINITY
  
CITY           SKY/WX    TMP DP  RH WIND       PRES   REMARKS
EVERETT        CLOUDY    58  52  80 VRB6      30.24F                  
BOEING FIELD   CLOUDY    61  53  75 SE3       30.23F                  
RENTON         CLOUDY    60  57  89 SW6       30.23S FOG              
SEATAC AIRPORT CLOUDY    60  54  80 SW5       30.24S HAZE             
JBLM-MCCHORD   CLOUDY    64  57  80 W5        30.24S                  
PUYALLUP       CLOUDY    63  54  72 VRB5      30.25R                  
BREMERTON      PTSUNNY   63  54  72 SW8       30.23S                  
JBLM-FT LEWIS  CLOUDY    62  58  86 S5        30.23S                  
TACOMA NARROWS CLOUDY    60  54  80 S7        30.24F                  
$$
 
WAZ001-503-506-510-514-515-182100-
NORTH INTERIOR
  
CITY           SKY/WX    TMP DP  RH WIND       PRES   REMARKS
BELLINGHAM     MOSUNNY   68  52  56 S12       30.19F                  
FRIDAY HARBOR  SUNNY     65  50  58 SW10G23   30.21S                  
EASTSOUND      CLOUDY    66  52  59 VRB6      30.19R                  
PORT ANGELES   MOSUNNY   60  50  69 W10G23    30.24F                  
EDIZ HOOK      FAIR      59  51  73 W14G21    30.24S                  
PORT TOWNSEND  CLOUDY    61  50  67 NW9G16    30.22S                  
NAS WHIDBEY    PTSUNNY   63  50  62 W10       30.27R                  
ARLINGTON      CLOUDY    64  51  62 VRB3      30.23F                  
BURLINGTON     MOSUNNY   68  52  56 S13G20    30.22S                  
$$
 
WAZ020-022-039-040-504-511-512-182100-
SOUTHWEST INTERIOR
  
CITY           SKY/WX    TMP DP  RH WIND       PRES   REMARKS
SHELTON        CLOUDY    67  52  58 SW10      30.20F                  
OLYMPIA        CLOUDY    64  51  62 VRB5      30.24S                  
CHEHALIS       CLOUDY    66  52  59 CALM      30.25S                  
KELSO          PTSUNNY   66  52  60 W13G20    30.26S                  
VANCOUVER      SUNNY     69  49  48 NW13      30.23F                  
SCAPPOOSE, OR  PTSUNNY   69  49  48 NW8       30.24R                  
PORTLAND, OR   MOSUNNY   70  48  45 NW10      30.24F                  
$$
 
WAZ021-516-517-182100-
WASHINGTON COAST
  
CITY           SKY/WX    TMP DP  RH WIND       PRES   REMARKS
FORKS          CLOUDY    58  50  75 W10       30.29R                  
HOQUIAM        PTSUNNY   63  51  65 W21G26    30.27R                  
ASTORIA, OR    CLOUDY    62  49  62 NW13      30.30S                  
$$
 
WAZ019-023-024-040-567>569-182100-
CASCADE MOUNTAINS AND COLUMBIA GORGE
  
CITY           SKY/WX    TMP DP  RH WIND       PRES   REMARKS
STAMPEDE PASS  CLOUDY    52  46  80 VRB7      30.21S                  
TROUTDALE, OR  MOSUNNY   69  50  50 SW6       30.23F                  
HOOD RIVER, OR PTCLDY    70  48  46 W17G28    30.14F HAZE             
THE DALLES, OR SUNNY     78  51  38 NW20G25   30.10F                  
$$

WAZ026-027-041>044-520-521-182100-
EAST SLOPES
  
CITY           SKY/WX    TMP DP  RH WIND       PRES   REMARKS
OMAK           SUNNY     83  41  22 VRB3      29.94F                  
WENATCHEE      SUNNY     82  33  17 W18G29    29.97F                  
ELLENSBURG     SUNNY     74  48  39 NW28G39   30.04S                  
YAKIMA         SUNNY     84  46  26 NW9       30.01F                  
SUNNYSIDE ARPT CLEAR     83  50  31 S7        30.01                   
YAKIMA TC      FAIR      81  42  24 W14       30.01S                  
$$

WAZ028-034-035-182100-
COLUMBIA BASIN
  
CITY           SKY/WX    TMP DP  RH WIND       PRES   REMARKS
EPHRATA        SUNNY     85  37  18 SW21G26   29.96F                  
MOSES LAKE     SUNNY     86  43  22 SW9       29.97F                  
PASCO          SUNNY     86  50  28 SW13      29.98F                  
RICHLAND ARPT  CLEAR     86  50  28 S10G21    29.98S                  
HERMISTON, OR  SUNNY     83  48  29 SW12      30.01F                  
$$

WAZ036>038-182100-
NORTHEAST WASHINGTON
  
CITY           SKY/WX    TMP DP  RH WIND       PRES   REMARKS
SPOKANE GEIGER PTSUNNY   78  43  28 VRB5      29.98F                  
SPOKANE FELTS  PTSUNNY   81  46  29 VRB5      29.97F                  
FAIRCHILD AFB  MOSUNNY   79  42  26 SW10G20   29.99F                  
COEURDALENE,ID MOSUNNY   78  49  35 W8        30.01F                  
DEER PARK      SUNNY     78  46  32 W12       29.98F                  
$$

WAZ029>033-182100-
SOUTHEAST WASHINGTON
  
CITY           SKY/WX    TMP DP  RH WIND       PRES   REMARKS
PULLMAN        MOSUNNY   73  48  41 W12G18    30.07S                  
LEWISTON, ID   MOSUNNY   83  45  26 NW15G23   30.00S                  
WALLA WALLA    SUNNY     80  48  32 S7        30.03S                  
PENDLETON, OR  MOSUNNY   79  45  29 W12G22    30.04F                  
$$